Location: Chakepay
(13.3931°S, 72.1925°W)
Time: 02:11:38
(UTC+00:00)

IDEFIX/ARIANE 42P - Pass Details

Date: 15 November 2019
Orbit: 784 x 803 km, 98.3° (Epoch: 14 December)

Event Time Altitude Azimuth Distance (km) Brightness Sun altitude
Exits shadow 08:49:28 20° 244° (WSW) 1,738 4.0 -19.3°
Drops below altitude 10° 08:51:42 10° 223° (SW) 2,359 4.8 -18.8°
Sets 08:54:23 0° 211° (SSW) 3,297 5.7 -18.2°
